Location: Alafon
(8.4500°N, 4.2333°E)
Time: 01:53:23
(UTC+00:00)

deb Explorer IX - Pass Details

Date: 28 July 2021
Orbit: 545 x 1092 km, 38.8° (Epoch: 16 September)

Event Time Altitude Azimuth Distance (km) Brightness Sun altitude
Rises 10:01:18 0° 204° (SSW) 2,705 ? 61.8°
Reaches altitude 10° 10:03:53 10° 188° (S) 1,843 ? 62.3°
Maximum altitude 10:07:09 22° 136° (SE) 1,303 ? 63.1°
Drops below altitude 10° 10:10:39 10° 85° (E) 1,993 ? 63.8°
Sets 10:13:33 0° 70° (ENE) 2,994 ? 64.5°
